Location: Audinghen
(50.8518°N, 1.6129°E)
Time: 06:30:42
(UTC+00:00)

Cosmos 2237 Rocket - Pass Details

Date: 07 August 2020
Orbit: 836 x 848 km, 71.0° (Epoch: 23 September)

Event Time Altitude Azimuth Distance (km) Brightness Sun altitude
Rises 02:32:18 0° 321° (NW) 3,410 5.5 -15.0°
Reaches altitude 10° 02:35:18 10° 306° (NW) 2,468 4.6 -14.7°
Maximum altitude 02:39:24 21° 259° (W) 1,802 3.5 -14.3°
Enters shadow 02:40:53 19° 238° (WSW) 1,898 3.5 -14.1°
